Time,TemperatureF,DewpointF,PressureIn,WindDirection,WindDirectionDegrees,WindSpeedMPH,WindSpeedGustMPH,Humidity,HourlyPrecipIn,Conditions,Clouds,dailyrainin,SoftwareType,DateUTC
2013-03-11 00:01:00,22.7,21.0,29.87,WSW,238,5.0,7.0,93,0.00,,,0.00,WeatherCatV1.14B232,2013-03-11 05:01:00,
2013-03-11 00:06:00,22.7,21.0,29.87,WNW,302,10.0,10.0,93,0.00,,,0.00,WeatherCatV1.14B232,2013-03-11 05:06:00,
2013-03-11 00:11:00,22.7,21.0,29.87,NW,321,0.0,13.0,93,0.00,,,0.01,WeatherCatV1.14B232,2013-03-11 05:11:00,
2013-03-11 00:16:00,22.5,20.8,29.87,WNW,299,0.0,6.0,93,0.00,,,0.01,WeatherCatV1.14B232,2013-03-11 05:16:00,
2013-03-11 00:21:00,22.5,20.8,29.87,West,277,3.0,11.0,93,0.00,,,0.01,WeatherCatV1.14B232,2013-03-11 05:21:00,
2013-03-11 00:26:00,22.5,20.8,29.87,NW,320,9.0,11.0,93,0.00,,,0.01,WeatherCatV1.14B232,2013-03-11 05:26:00,
2013-03-11 00:31:00,22.4,20.7,29.86,WNW,286,5.0,7.0,93,0.00,,,0.01,WeatherCatV1.14B232,2013-03-11 05:31:00,
2013-03-11 00:36:00,22.4,20.7,29.86,NW,313,2.0,10.0,93,0.00,,,0.01,WeatherCatV1.14B232,2013-03-11 05:36:00,
2013-03-11 00:41:00,22.4,20.7,29.86,WNW,303,3.0,6.0,93,0.00,,,0.01,WeatherCatV1.14B232,2013-03-11 05:41:00,
2013-03-11 00:46:00,22.4,20.4,29.86,NW,313,6.0,7.0,92,0.00,,,0.01,WeatherCatV1.14B232,2013-03-11 05:46:00,
2013-03-11 00:51:00,22.2,20.2,29.86,NNW,337,3.0,5.0,92,0.00,,,0.01,WeatherCatV1.14B232,2013-03-11 05:51:00,
2013-03-11 00:56:00,22.2,20.2,29.86,SW,231,2.0,7.0,92,0.00,,,0.01,WeatherCatV1.14B232,2013-03-11 05:56:00,
2013-03-11 01:01:00,22.2,20.2,29.86,NNW,327,2.0,5.0,92,0.00,,,0.01,WeatherCatV1.14B232,2013-03-11 06:01:00,
2013-03-11 01:06:00,22.2,20.2,29.86,WNW,303,2.0,11.0,92,0.00,,,0.01,WeatherCatV1.14B232,2013-03-11 06:06:00,
2013-03-11 01:11:00,22.2,20.2,29.86,West,272,4.0,9.0,92,0.00,,,0.01,WeatherCatV1.14B232,2013-03-11 06:11:00,
2013-03-11 01:16:00,22.2,20.2,29.86,NW,308,3.0,5.0,92,0.00,,,0.01,WeatherCatV1.14B232,2013-03-11 06:16:00,
2013-03-11 01:21:00,22.2,20.2,29.86,NW,307,3.0,6.0,92,0.00,,,0.01,WeatherCatV1.14B232,2013-03-11 06:21:00,
2013-03-11 01:26:00,22.1,20.1,29.86,NW,311,2.0,11.0,92,0.00,,,0.01,WeatherCatV1.14B232,2013-03-11 06:26:00,
2013-03-11 01:31:00,22.1,20.1,29.86,West,281,0.0,9.0,92,0.00,,,0.01,WeatherCatV1.14B232,2013-03-11 06:31:00,
2013-03-11 01:36:00,22.1,20.1,29.86,NNW,333,2.0,10.0,92,0.00,,,0.01,WeatherCatV1.14B232,2013-03-11 06:36:00,
2013-03-11 01:41:00,22.1,20.1,29.86,WSW,238,2.0,9.0,92,0.00,,,0.01,WeatherCatV1.14B232,2013-03-11 06:41:00,
2013-03-11 01:46:00,22.1,20.1,29.85,West,259,5.0,6.0,92,0.00,,,0.01,WeatherCatV1.14B232,2013-03-11 06:46:00,
2013-03-11 01:51:00,22.2,20.2,29.85,West,267,3.0,12.0,92,0.00,,,0.01,WeatherCatV1.14B232,2013-03-11 06:51:00,
2013-03-11 01:56:00,22.2,20.2,29.85,NW,317,2.0,13.0,92,0.00,,,0.01,WeatherCatV1.14B232,2013-03-11 06:56:00,
2013-03-11 02:01:00,22.2,20.2,29.85,West,281,10.0,10.0,92,0.00,,,0.01,WeatherCatV1.14B232,2013-03-11 07:01:00,
2013-03-11 02:06:00,22.2,20.0,29.85,WNW,301,2.0,10.0,91,0.00,,,0.01,WeatherCatV1.14B232,2013-03-11 07:06:00,
2013-03-11 02:11:00,22.2,20.0,29.85,NW,311,9.0,10.0,91,0.00,,,0.01,WeatherCatV1.14B232,2013-03-11 07:11:00,
2013-03-11 02:16:00,22.4,20.2,29.84,WSW,246,3.0,7.0,91,0.00,,,0.01,WeatherCatV1.14B232,2013-03-11 07:16:00,
2013-03-11 02:21:00,22.4,20.2,29.84,WNW,300,3.0,10.0,91,0.00,,,0.01,WeatherCatV1.14B232,2013-03-11 07:21:00,
2013-03-11 02:26:00,22.4,20.2,29.84,NNW,327,7.0,9.0,91,0.00,,,0.01,WeatherCatV1.14B232,2013-03-11 07:26:00,
2013-03-11 02:31:00,22.4,20.2,29.85,WNW,289,4.0,7.0,91,0.00,,,0.01,WeatherCatV1.14B232,2013-03-11 07:31:00,
2013-03-11 02:36:00,22.4,20.2,29.85,WNW,302,5.0,7.0,91,0.00,,,0.01,WeatherCatV1.14B232,2013-03-11 07:36:00,
2013-03-11 02:41:00,22.4,20.2,29.85,NW,321,3.0,8.0,91,0.00,,,0.01,WeatherCatV1.14B232,2013-03-11 07:41:00,
2013-03-11 02:46:00,22.4,20.2,29.84,NW,309,1.0,7.0,91,0.00,,,0.01,WeatherCatV1.14B232,2013-03-11 07:46:00,
2013-03-11 02:51:00,22.4,20.2,29.84,NW,321,2.0,6.0,91,0.00,,,0.01,WeatherCatV1.14B232,2013-03-11 07:51:00,
2013-03-11 02:56:00,22.4,20.2,29.84,NW,318,9.0,9.0,91,0.00,,,0.01,WeatherCatV1.14B232,2013-03-11 07:56:00,
2013-03-11 03:01:00,22.4,20.2,29.84,NW,309,1.0,6.0,91,0.00,,,0.01,WeatherCatV1.14B232,2013-03-11 08:01:00,
2013-03-11 03:06:00,22.4,20.2,29.84,West,277,4.0,12.0,91,0.00,,,0.01,WeatherCatV1.14B232,2013-03-11 08:06:00,
2013-03-11 03:11:00,22.4,20.2,29.84,NW,320,1.0,11.0,91,0.00,,,0.01,WeatherCatV1.14B232,2013-03-11 08:11:00,
2013-03-11 03:16:00,22.2,20.0,29.84,WNW,295,6.0,10.0,91,0.00,,,0.01,WeatherCatV1.14B232,2013-03-11 08:16:00,
2013-03-11 03:21:00,22.2,20.0,29.84,SW,235,5.0,9.0,91,0.00,,,0.01,WeatherCatV1.14B232,2013-03-11 08:21:00,
2013-03-11 03:26:00,22.2,20.0,29.84,West,271,1.0,6.0,91,0.00,,,0.01,WeatherCatV1.14B232,2013-03-11 08:26:00,
2013-03-11 03:31:00,22.1,19.9,29.84,NNW,328,7.0,7.0,91,0.00,,,0.01,WeatherCatV1.14B232,2013-03-11 08:31:00,
2013-03-11 03:36:00,21.9,19.7,29.84,NW,309,2.0,4.0,91,0.00,,,0.01,WeatherCatV1.14B232,2013-03-11 08:36:00,
2013-03-11 03:41:00,21.9,19.7,29.84,NW,307,2.0,4.0,91,0.00,,,0.01,WeatherCatV1.14B232,2013-03-11 08:41:00,
2013-03-11 03:46:00,21.9,19.7,29.83,NW,324,2.0,9.0,91,0.00,,,0.01,WeatherCatV1.14B232,2013-03-11 08:46:00,
2013-03-11 03:51:00,21.8,19.6,29.83,NW,319,12.0,12.0,91,0.00,,,0.01,WeatherCatV1.14B232,2013-03-11 08:51:00,
2013-03-11 03:56:00,21.8,19.6,29.83,NW,321,2.0,6.0,91,0.00,,,0.01,WeatherCatV1.14B232,2013-03-11 08:56:00,
2013-03-11 04:01:00,21.8,19.6,29.83,NNW,333,2.0,7.0,91,0.00,,,0.01,WeatherCatV1.14B232,2013-03-11 09:01:00,
2013-03-11 04:06:00,21.8,19.6,29.83,North,0,5.0,9.0,91,0.00,,,0.01,WeatherCatV1.14B232,2013-03-11 09:06:00,
2013-03-11 04:11:00,21.8,19.6,29.83,NW,317,4.0,11.0,91,0.00,,,0.01,WeatherCatV1.14B232,2013-03-11 09:11:00,
2013-03-11 04:16:00,21.8,19.3,29.83,NW,314,3.0,7.0,90,0.00,,,0.01,WeatherCatV1.14B232,2013-03-11 09:16:00,
2013-03-11 04:21:00,21.8,19.3,29.83,NW,304,2.0,5.0,90,0.00,,,0.01,WeatherCatV1.14B232,2013-03-11 09:21:00,
2013-03-11 04:26:00,21.8,19.3,29.83,WNW,290,3.0,9.0,90,0.00,,,0.01,WeatherCatV1.14B232,2013-03-11 09:26:00,
2013-03-11 04:31:00,21.6,19.1,29.83,WNW,302,10.0,14.0,90,0.00,,,0.01,WeatherCatV1.14B232,2013-03-11 09:31:00,
2013-03-11 04:36:00,21.6,19.1,29.83,WNW,300,3.0,13.0,90,0.00,,,0.01,WeatherCatV1.14B232,2013-03-11 09:36:00,
2013-03-11 04:41:00,21.6,19.1,29.83,NW,308,0.0,6.0,90,0.00,,,0.01,WeatherCatV1.14B232,2013-03-11 09:41:00,
2013-03-11 04:46:00,21.6,19.1,29.83,WNW,300,3.0,12.0,90,0.00,,,0.01,WeatherCatV1.14B232,2013-03-11 09:46:00,
2013-03-11 04:51:00,21.6,19.1,29.83,SSW,208,3.0,5.0,90,0.00,,,0.01,WeatherCatV1.14B232,2013-03-11 09:51:00,
2013-03-11 04:56:00,21.6,18.9,29.83,NW,324,2.0,4.0,89,0.00,,,0.01,WeatherCatV1.14B232,2013-03-11 09:56:00,
2013-03-11 05:01:00,21.6,18.9,29.83,West,267,3.0,10.0,89,0.00,,,0.01,WeatherCatV1.14B232,2013-03-11 10:01:00,
2013-03-11 05:06:00,21.6,18.9,29.83,NW,316,5.0,5.0,89,0.00,,,0.01,WeatherCatV1.14B232,2013-03-11 10:06:00,
2013-03-11 05:11:00,21.6,18.9,29.83,NNW,331,2.0,8.0,89,0.00,,,0.01,WeatherCatV1.14B232,2013-03-11 10:11:00,
2013-03-11 05:16:00,21.6,18.9,29.83,NW,319,2.0,10.0,89,0.00,,,0.01,WeatherCatV1.14B232,2013-03-11 10:16:00,
2013-03-11 05:21:00,21.6,18.9,29.83,NW,312,2.0,7.0,89,0.00,,,0.01,WeatherCatV1.14B232,2013-03-11 10:21:00,
2013-03-11 05:26:00,21.6,18.9,29.83,NW,317,4.0,5.0,89,0.00,,,0.01,WeatherCatV1.14B232,2013-03-11 10:26:00,
2013-03-11 05:31:00,21.6,18.9,29.82,West,277,3.0,6.0,89,0.00,,,0.01,WeatherCatV1.14B232,2013-03-11 10:31:00,
2013-03-11 05:36:00,21.6,18.9,29.82,WNW,295,3.0,6.0,89,0.00,,,0.01,WeatherCatV1.14B232,2013-03-11 10:36:00,
2013-03-11 05:41:00,21.6,18.9,29.82,NW,325,5.0,9.0,89,0.00,,,0.01,WeatherCatV1.14B232,2013-03-11 10:41:00,
2013-03-11 05:46:00,21.6,18.9,29.82,NW,306,0.0,8.0,89,0.00,,,0.01,WeatherCatV1.14B232,2013-03-11 10:46:00,
2013-03-11 05:52:00,21.6,18.9,29.82,WSW,248,2.0,9.0,89,0.00,,,0.01,WeatherCatV1.14B232,2013-03-11 10:52:00,
2013-03-11 05:57:00,21.8,19.1,29.82,WNW,289,2.0,10.0,89,0.00,,,0.01,WeatherCatV1.14B232,2013-03-11 10:57:00,
2013-03-11 06:02:00,21.8,19.1,29.83,WSW,240,2.0,7.0,89,0.00,,,0.01,WeatherCatV1.14B232,2013-03-11 11:02:00,
2013-03-11 06:07:00,21.6,18.9,29.83,NE,40,2.0,6.0,89,0.00,,,0.01,WeatherCatV1.14B232,2013-03-11 11:07:00,
2013-03-11 06:12:00,21.8,19.1,29.83,WNW,294,3.0,6.0,89,0.00,,,0.01,WeatherCatV1.14B232,2013-03-11 11:12:00,
2013-03-11 06:17:00,21.8,19.1,29.83,WNW,299,2.0,5.0,89,0.00,,,0.01,WeatherCatV1.14B232,2013-03-11 11:17:00,
2013-03-11 06:22:00,21.8,19.1,29.83,NW,309,0.0,6.0,89,0.00,,,0.01,WeatherCatV1.14B232,2013-03-11 11:22:00,
2013-03-11 06:27:00,21.8,19.1,29.83,NW,313,1.0,3.0,89,0.00,,,0.01,WeatherCatV1.14B232,2013-03-11 11:27:00,
2013-03-11 06:32:00,21.8,19.1,29.83,NW,313,4.0,11.0,89,0.00,,,0.01,WeatherCatV1.14B232,2013-03-11 11:32:00,
2013-03-11 06:37:00,21.6,18.6,29.83,WSW,254,1.0,10.0,88,0.00,,,0.01,WeatherCatV1.14B232,2013-03-11 11:37:00,
2013-03-11 06:42:00,21.6,18.6,29.83,NW,320,4.0,7.0,88,0.00,,,0.01,WeatherCatV1.14B232,2013-03-11 11:42:00,
2013-03-11 06:47:00,21.6,18.6,29.83,NW,314,6.0,9.0,88,0.00,,,0.01,WeatherCatV1.14B232,2013-03-11 11:47:00,
2013-03-11 06:52:00,21.4,18.4,29.83,NW,317,3.0,9.0,88,0.00,,,0.01,WeatherCatV1.14B232,2013-03-11 11:52:00,
2013-03-11 06:57:00,21.4,18.4,29.83,WNW,287,4.0,10.0,88,0.00,,,0.01,WeatherCatV1.14B232,2013-03-11 11:57:00,
2013-03-11 07:02:00,21.4,18.1,29.83,NW,307,2.0,10.0,87,0.00,,,0.01,WeatherCatV1.14B232,2013-03-11 12:02:00,
2013-03-11 07:07:00,21.4,18.1,29.83,NW,311,3.0,5.0,87,0.00,,,0.01,WeatherCatV1.14B232,2013-03-11 12:07:00,
2013-03-11 07:12:00,21.3,18.0,29.83,West,263,3.0,5.0,87,0.00,,,0.01,WeatherCatV1.14B232,2013-03-11 12:12:00,
2013-03-11 07:17:00,21.3,18.0,29.83,North,351,4.0,7.0,87,0.00,,,0.01,WeatherCatV1.14B232,2013-03-11 12:17:00,
2013-03-11 07:22:00,21.3,18.0,29.83,WNW,295,0.0,6.0,87,0.00,,,0.01,WeatherCatV1.14B232,2013-03-11 12:22:00,
2013-03-11 07:27:00,21.3,18.0,29.83,NW,304,2.0,4.0,87,0.00,,,0.01,WeatherCatV1.14B232,2013-03-11 12:27:00,
2013-03-11 07:32:00,21.3,18.0,29.84,NNW,338,3.0,5.0,87,0.00,,,0.01,WeatherCatV1.14B232,2013-03-11 12:32:00,
2013-03-11 07:37:00,21.4,18.1,29.84,NW,318,5.0,5.0,87,0.00,,,0.01,WeatherCatV1.14B232,2013-03-11 12:37:00,
2013-03-11 07:42:00,21.4,18.1,29.84,WSW,240,2.0,3.0,87,0.00,,,0.01,WeatherCatV1.14B232,2013-03-11 12:42:00,
2013-03-11 07:47:00,21.4,18.1,29.85,NNW,329,4.0,6.0,87,0.00,,,0.01,WeatherCatV1.14B232,2013-03-11 12:47:00,
2013-03-11 07:52:00,21.4,18.1,29.85,NNW,327,0.0,9.0,87,0.00,,,0.01,WeatherCatV1.14B232,2013-03-11 12:52:00,
2013-03-11 07:57:00,21.4,18.1,29.85,NW,315,1.0,6.0,87,0.00,,,0.01,WeatherCatV1.14B232,2013-03-11 12:57:00,
2013-03-11 08:02:00,21.4,18.1,29.85,NW,320,1.0,7.0,87,0.00,,,0.01,WeatherCatV1.14B232,2013-03-11 13:02:00,
2013-03-11 08:07:00,21.4,18.1,29.85,NW,318,4.0,6.0,87,0.00,,,0.01,WeatherCatV1.14B232,2013-03-11 13:07:00,
2013-03-11 08:12:00,21.4,18.1,29.85,NNW,330,4.0,5.0,87,0.00,,,0.01,WeatherCatV1.14B232,2013-03-11 13:12:00,
2013-03-11 08:17:00,21.4,18.1,29.85,NW,316,4.0,11.0,87,0.00,,,0.01,WeatherCatV1.14B232,2013-03-11 13:17:00,
2013-03-11 08:22:00,21.4,18.1,29.85,WSW,252,2.0,9.0,87,0.00,,,0.01,WeatherCatV1.14B232,2013-03-11 13:22:00,
2013-03-11 08:27:00,21.4,18.1,29.85,NNW,333,2.0,6.0,87,0.00,,,0.01,WeatherCatV1.14B232,2013-03-11 13:27:00,
2013-03-11 08:32:00,21.4,18.1,29.85,West,267,3.0,5.0,87,0.00,,,0.01,WeatherCatV1.14B232,2013-03-11 13:32:00,
2013-03-11 08:37:00,21.4,18.1,29.85,West,275,1.0,6.0,87,0.00,,,0.01,WeatherCatV1.14B232,2013-03-11 13:37:00,
2013-03-11 08:42:00,21.6,18.1,29.85,WSW,252,5.0,6.0,86,0.00,,,0.01,WeatherCatV1.14B232,2013-03-11 13:42:00,
2013-03-11 08:47:00,21.6,18.1,29.86,NW,308,1.0,3.0,86,0.00,,,0.01,WeatherCatV1.14B232,2013-03-11 13:47:00,
2013-03-11 08:52:00,21.6,18.1,29.86,WNW,284,3.0,4.0,86,0.00,,,0.01,WeatherCatV1.14B232,2013-03-11 13:52:00,
2013-03-11 08:57:00,21.6,18.1,29.86,North,351,2.0,7.0,86,0.00,,,0.01,WeatherCatV1.14B232,2013-03-11 13:57:00,
2013-03-11 09:02:00,21.6,18.1,29.86,NW,315,9.0,9.0,86,0.00,,,0.01,WeatherCatV1.14B232,2013-03-11 14:02:00,
2013-03-11 09:07:00,21.6,18.1,29.86,WSW,250,1.0,3.0,86,0.00,,,0.01,WeatherCatV1.14B232,2013-03-11 14:07:00,
2013-03-11 09:12:00,21.8,18.3,29.86,West,265,4.0,5.0,86,0.00,,,0.01,WeatherCatV1.14B232,2013-03-11 14:12:00,
2013-03-11 09:17:00,21.8,18.3,29.87,WSW,250,5.0,5.0,86,0.00,,,0.01,WeatherCatV1.14B232,2013-03-11 14:17:00,
2013-03-11 09:22:00,21.8,18.3,29.87,WSW,254,1.0,8.0,86,0.00,,,0.01,WeatherCatV1.14B232,2013-03-11 14:22:00,
2013-03-11 09:27:00,21.8,18.0,29.87,NW,305,1.0,4.0,85,0.00,,,0.01,WeatherCatV1.14B232,2013-03-11 14:27:00,
2013-03-11 09:32:00,21.8,18.0,29.87,West,265,3.0,4.0,85,0.00,,,0.01,WeatherCatV1.14B232,2013-03-11 14:32:00,
2013-03-11 09:37:00,21.8,18.0,29.87,NW,308,2.0,4.0,85,0.00,,,0.01,WeatherCatV1.14B232,2013-03-11 14:37:00,
2013-03-11 09:42:00,21.9,18.1,29.87,WNW,290,0.0,2.0,85,0.00,,,0.01,WeatherCatV1.14B232,2013-03-11 14:42:00,
2013-03-11 09:47:00,21.9,18.1,29.88,NW,317,4.0,4.0,85,0.00,,,0.01,WeatherCatV1.14B232,2013-03-11 14:47:00,
2013-03-11 09:52:00,22.1,18.3,29.88,WNW,302,2.0,3.0,85,0.00,,,0.01,WeatherCatV1.14B232,2013-03-11 14:52:00,
2013-03-11 09:57:00,22.1,18.3,29.88,NW,315,3.0,6.0,85,0.00,,,0.01,WeatherCatV1.14B232,2013-03-11 14:57:00,
2013-03-11 10:02:00,22.1,18.0,29.88,NNW,328,1.0,4.0,84,0.00,,,0.01,WeatherCatV1.14B232,2013-03-11 15:02:00,
2013-03-11 10:07:00,22.1,18.0,29.88,WNW,300,3.0,5.0,84,0.00,,,0.01,WeatherCatV1.14B232,2013-03-11 15:07:00,
2013-03-11 10:12:00,22.1,18.0,29.88,West,273,2.0,3.0,84,0.00,,,0.01,WeatherCatV1.14B232,2013-03-11 15:12:00,
2013-03-11 10:17:00,22.1,18.0,29.88,NW,306,0.0,6.0,84,0.00,,,0.01,WeatherCatV1.14B232,2013-03-11 15:17:00,
2013-03-11 10:22:00,22.2,18.1,29.88,NW,306,2.0,7.0,84,0.00,,,0.01,WeatherCatV1.14B232,2013-03-11 15:22:00,
2013-03-11 10:27:00,22.4,18.3,29.88,NW,323,2.0,5.0,84,0.00,,,0.01,WeatherCatV1.14B232,2013-03-11 15:27:00,
2013-03-11 10:32:00,22.5,18.1,29.88,SW,232,4.0,6.0,83,0.00,,,0.01,WeatherCatV1.14B232,2013-03-11 15:32:00,
2013-03-11 10:37:00,22.5,18.1,29.88,NW,314,6.0,7.0,83,0.00,,,0.01,WeatherCatV1.14B232,2013-03-11 15:37:00,
2013-03-11 10:42:00,22.7,18.6,29.88,NNW,336,4.0,6.0,84,0.00,,,0.01,WeatherCatV1.14B232,2013-03-11 15:42:00,
2013-03-11 10:47:00,22.9,18.5,29.88,West,268,2.0,6.0,83,0.00,,,0.01,WeatherCatV1.14B232,2013-03-11 15:47:00,
2013-03-11 10:52:00,22.9,18.5,29.88,NW,325,3.0,7.0,83,0.00,,,0.01,WeatherCatV1.14B232,2013-03-11 15:52:00,
2013-03-11 10:57:00,23.0,18.3,29.88,NNW,329,2.0,6.0,82,0.00,,,0.01,WeatherCatV1.14B232,2013-03-11 15:57:00,
2013-03-11 11:02:00,23.2,18.5,29.88,NW,306,4.0,12.0,82,0.00,,,0.01,WeatherCatV1.14B232,2013-03-11 16:02:00,
2013-03-11 11:07:00,23.5,18.8,29.88,NNW,328,5.0,6.0,82,0.00,,,0.01,WeatherCatV1.14B232,2013-03-11 16:07:00,
2013-03-11 11:12:00,23.6,18.6,29.88,WNW,294,1.0,8.0,81,0.00,,,0.01,WeatherCatV1.14B232,2013-03-11 16:12:00,
2013-03-11 11:17:00,23.9,18.9,29.88,NW,310,1.0,4.0,81,0.00,,,0.01,WeatherCatV1.14B232,2013-03-11 16:17:00,
2013-03-11 11:22:00,24.2,18.9,29.88,NNW,348,6.0,6.0,80,0.00,,,0.01,WeatherCatV1.14B232,2013-03-11 16:22:00,
2013-03-11 11:27:00,24.4,19.1,29.88,West,267,2.0,4.0,80,0.00,,,0.01,WeatherCatV1.14B232,2013-03-11 16:27:00,
2013-03-11 11:32:00,24.5,18.9,29.87,NW,317,3.0,5.0,79,0.00,,,0.01,WeatherCatV1.14B232,2013-03-11 16:32:00,
2013-03-11 11:37:00,24.5,18.9,29.87,NW,313,6.0,10.0,79,0.00,,,0.01,WeatherCatV1.14B232,2013-03-11 16:37:00,
2013-03-11 11:42:00,24.5,18.9,29.87,WNW,299,0.0,7.0,79,0.00,,,0.01,WeatherCatV1.14B232,2013-03-11 16:42:00,
2013-03-11 11:47:00,24.7,19.1,29.86,NW,320,0.0,5.0,79,0.00,,,0.01,WeatherCatV1.14B232,2013-03-11 16:47:00,
2013-03-11 11:52:00,25.1,19.5,29.86,WNW,290,2.0,9.0,79,0.00,,,0.01,WeatherCatV1.14B232,2013-03-11 16:52:00,
2013-03-11 11:57:00,25.4,19.8,29.86,NW,311,2.0,5.0,79,0.00,,,0.01,WeatherCatV1.14B232,2013-03-11 16:57:00,
2013-03-11 12:02:00,25.6,20.0,29.86,NW,308,0.0,9.0,79,0.00,,,0.01,WeatherCatV1.14B232,2013-03-11 17:02:00,
2013-03-11 12:07:00,25.6,19.7,29.86,NW,315,1.0,9.0,78,0.00,,,0.01,WeatherCatV1.14B232,2013-03-11 17:07:00,
2013-03-11 12:12:00,25.7,19.8,29.86,NW,306,1.0,10.0,78,0.00,,,0.01,WeatherCatV1.14B232,2013-03-11 17:12:00,
2013-03-11 12:17:00,25.8,19.9,29.86,NW,314,6.0,10.0,78,0.00,,,0.01,WeatherCatV1.14B232,2013-03-11 17:17:00,
2013-03-11 12:22:00,25.8,19.9,29.86,NW,311,1.0,6.0,78,0.00,,,0.01,WeatherCatV1.14B232,2013-03-11 17:22:00,
2013-03-11 12:27:00,26.0,20.1,29.86,NNW,342,4.0,8.0,78,0.00,,,0.01,WeatherCatV1.14B232,2013-03-11 17:27:00,
2013-03-11 12:32:00,26.1,20.2,29.86,NW,308,2.0,7.0,78,0.00,,,0.01,WeatherCatV1.14B232,2013-03-11 17:32:00,
2013-03-11 12:37:00,26.3,20.4,29.86,WNW,283,4.0,9.0,78,0.00,,,0.01,WeatherCatV1.14B232,2013-03-11 17:37:00,
2013-03-11 12:42:00,26.3,20.1,29.86,WNW,294,3.0,4.0,77,0.00,,,0.01,WeatherCatV1.14B232,2013-03-11 17:42:00,
2013-03-11 12:47:00,26.3,20.1,29.87,NNW,340,3.0,9.0,77,0.00,,,0.01,WeatherCatV1.14B232,2013-03-11 17:47:00,
2013-03-11 12:52:00,26.4,20.2,29.87,NNW,336,2.0,7.0,77,0.00,,,0.01,WeatherCatV1.14B232,2013-03-11 17:52:00,
2013-03-11 12:57:00,26.7,20.8,29.87,NNW,334,4.0,5.0,78,0.00,,,0.01,WeatherCatV1.14B232,2013-03-11 17:57:00,
2013-03-11 13:02:00,27.2,21.3,29.87,WNW,284,3.0,6.0,78,0.00,,,0.01,WeatherCatV1.14B232,2013-03-11 18:02:00,
2013-03-11 13:07:00,27.2,20.7,29.87,West,264,3.0,4.0,76,0.00,,,0.01,WeatherCatV1.14B232,2013-03-11 18:07:00,
2013-03-11 13:12:00,27.3,21.1,29.87,NW,320,4.0,4.0,77,0.00,,,0.01,WeatherCatV1.14B232,2013-03-11 18:12:00,
2013-03-11 13:17:00,27.5,21.3,29.87,West,264,2.0,3.0,77,0.00,,,0.01,WeatherCatV1.14B232,2013-03-11 18:17:00,
2013-03-11 13:22:00,27.6,20.7,29.87,West,260,3.0,5.0,75,0.00,,,0.01,WeatherCatV1.14B232,2013-03-11 18:22:00,
2013-03-11 13:28:00,27.3,20.1,29.87,West,265,0.0,5.0,74,0.00,,,0.01,WeatherCatV1.14B232,2013-03-11 18:28:00,
2013-03-11 13:33:00,27.3,20.4,29.86,NW,306,2.0,5.0,75,0.00,,,0.01,WeatherCatV1.14B232,2013-03-11 18:33:00,
2013-03-11 13:38:00,27.2,20.0,29.86,NNW,327,6.0,6.0,74,0.00,,,0.01,WeatherCatV1.14B232,2013-03-11 18:38:00,
2013-03-11 13:43:00,27.2,20.0,29.86,West,271,1.0,2.0,74,0.00,,,0.01,WeatherCatV1.14B232,2013-03-11 18:43:00,
2013-03-11 13:48:00,27.2,20.3,29.86,WSW,252,4.0,7.0,75,0.00,,,0.01,WeatherCatV1.14B232,2013-03-11 18:48:00,
2013-03-11 13:53:00,27.2,20.0,29.86,West,263,1.0,3.0,74,0.00,,,0.01,WeatherCatV1.14B232,2013-03-11 18:53:00,
2013-03-11 13:58:00,27.0,19.8,29.86,NW,317,3.0,5.0,74,0.00,,,0.01,WeatherCatV1.14B232,2013-03-11 18:58:00,
2013-03-11 14:03:00,27.2,20.3,29.84,NW,312,1.0,4.0,75,0.00,,,0.01,WeatherCatV1.14B232,2013-03-11 19:03:00,
2013-03-11 14:08:00,27.9,21.3,29.84,WNW,291,3.0,4.0,76,0.00,,,0.01,WeatherCatV1.14B232,2013-03-11 19:08:00,
2013-03-11 14:13:00,28.5,21.0,29.84,West,266,9.0,10.0,73,0.00,,,0.01,WeatherCatV1.14B232,2013-03-11 19:13:00,
2013-03-11 14:18:00,28.7,21.5,29.84,West,259,4.0,5.0,74,0.00,,,0.01,WeatherCatV1.14B232,2013-03-11 19:18:00,
2013-03-11 14:23:00,28.8,21.3,29.84,West,259,4.0,4.0,73,0.00,,,0.01,WeatherCatV1.14B232,2013-03-11 19:23:00,
2013-03-11 14:28:00,29.0,21.4,29.84,West,259,3.0,3.0,73,0.00,,,0.01,WeatherCatV1.14B232,2013-03-11 19:28:00,
2013-03-11 14:33:00,29.3,21.7,29.83,SW,232,1.0,5.0,73,0.00,,,0.01,WeatherCatV1.14B232,2013-03-11 19:33:00,
2013-03-11 14:38:00,29.5,21.6,29.83,WNW,285,4.0,6.0,72,0.00,,,0.01,WeatherCatV1.14B232,2013-03-11 19:38:00,
2013-03-11 14:43:00,29.5,21.6,29.83,NNW,331,4.0,4.0,72,0.00,,,0.01,WeatherCatV1.14B232,2013-03-11 19:43:00,
2013-03-11 14:48:00,29.8,21.2,29.83,West,261,4.0,7.0,70,0.00,,,0.01,WeatherCatV1.14B232,2013-03-11 19:48:00,
2013-03-11 14:53:00,29.5,20.9,29.83,WSW,256,4.0,7.0,70,0.00,,,0.01,WeatherCatV1.14B232,2013-03-11 19:53:00,
2013-03-11 14:58:00,29.5,21.3,29.83,West,273,0.0,3.0,71,0.00,,,0.01,WeatherCatV1.14B232,2013-03-11 19:58:00,
2013-03-11 15:03:00,30.0,21.8,29.82,WSW,254,1.0,7.0,71,0.00,,,0.01,WeatherCatV1.14B232,2013-03-11 20:03:00,
2013-03-11 15:08:00,30.4,21.8,29.82,WSW,250,4.0,8.0,70,0.00,,,0.01,WeatherCatV1.14B232,2013-03-11 20:08:00,
2013-03-11 15:13:00,30.4,21.8,29.82,West,267,3.0,5.0,70,0.00,,,0.01,WeatherCatV1.14B232,2013-03-11 20:13:00,
2013-03-11 15:18:00,30.4,21.8,29.83,WNW,292,0.0,5.0,70,0.00,,,0.01,WeatherCatV1.14B232,2013-03-11 20:18:00,
2013-03-11 15:23:00,30.9,22.3,29.83,SW,236,0.0,5.0,70,0.00,,,0.01,WeatherCatV1.14B232,2013-03-11 20:23:00,
2013-03-11 15:28:00,30.7,21.8,29.83,West,260,2.0,7.0,69,0.00,,,0.01,WeatherCatV1.14B232,2013-03-11 20:28:00,
2013-03-11 15:33:00,30.7,21.8,29.83,WNW,298,2.0,3.0,69,0.00,,,0.01,WeatherCatV1.14B232,2013-03-11 20:33:00,
2013-03-11 15:38:00,30.7,21.1,29.83,WSW,254,2.0,12.0,67,0.00,,,0.01,WeatherCatV1.14B232,2013-03-11 20:38:00,
2013-03-11 15:43:00,30.7,21.4,29.83,West,267,4.0,5.0,68,0.00,,,0.01,WeatherCatV1.14B232,2013-03-11 20:43:00,
2013-03-11 15:48:00,30.6,21.3,29.84,West,260,7.0,7.0,68,0.00,,,0.01,WeatherCatV1.14B232,2013-03-11 20:48:00,
2013-03-11 15:53:00,30.7,21.1,29.84,WSW,248,1.0,9.0,67,0.00,,,0.01,WeatherCatV1.14B232,2013-03-11 20:53:00,
2013-03-11 15:58:00,30.9,21.6,29.84,SW,225,0.0,7.0,68,0.00,,,0.01,WeatherCatV1.14B232,2013-03-11 20:58:00,
2013-03-11 16:03:00,31.2,21.9,29.83,SW,219,1.0,1.0,68,0.00,,,0.01,WeatherCatV1.14B232,2013-03-11 21:03:00,
2013-03-11 16:08:00,31.5,21.8,29.83,SW,232,2.0,5.0,67,0.00,,,0.01,WeatherCatV1.14B232,2013-03-11 21:08:00,
2013-03-11 16:13:00,31.8,22.1,29.83,WSW,246,4.0,5.0,67,0.00,,,0.01,WeatherCatV1.14B232,2013-03-11 21:13:00,
2013-03-11 16:18:00,31.6,21.6,29.84,West,281,0.0,3.0,66,0.00,,,0.01,WeatherCatV1.14B232,2013-03-11 21:18:00,
2013-03-11 16:23:00,31.6,21.9,29.84,West,268,3.0,5.0,67,0.00,,,0.01,WeatherCatV1.14B232,2013-03-11 21:23:00,
2013-03-11 16:28:00,31.5,21.5,29.84,WSW,240,7.0,7.0,66,0.00,,,0.01,WeatherCatV1.14B232,2013-03-11 21:28:00,
2013-03-11 16:33:00,31.6,20.8,29.83,WSW,250,3.0,9.0,64,0.00,,,0.01,WeatherCatV1.14B232,2013-03-11 21:33:00,
2013-03-11 16:38:00,31.5,21.1,29.83,West,261,0.0,5.0,65,0.00,,,0.01,WeatherCatV1.14B232,2013-03-11 21:38:00,
2013-03-11 16:43:00,31.6,21.6,29.83,WSW,257,3.0,3.0,66,0.00,,,0.01,WeatherCatV1.14B232,2013-03-11 21:43:00,
2013-03-11 16:48:00,31.8,21.0,29.83,WSW,254,3.0,5.0,64,0.00,,,0.01,WeatherCatV1.14B232,2013-03-11 21:48:00,
2013-03-11 16:53:00,31.9,20.8,29.83,West,260,1.0,3.0,63,0.00,,,0.01,WeatherCatV1.14B232,2013-03-11 21:53:00,
2013-03-11 16:58:00,31.9,21.1,29.83,West,264,0.0,2.0,64,0.00,,,0.01,WeatherCatV1.14B232,2013-03-11 21:58:00,
2013-03-11 17:03:00,32.2,20.7,29.83,West,263,0.0,3.0,62,0.00,,,0.01,WeatherCatV1.14B232,2013-03-11 22:03:00,
2013-03-11 17:08:00,32.2,20.7,29.83,West,265,0.0,5.0,62,0.00,,,0.01,WeatherCatV1.14B232,2013-03-11 22:08:00,
2013-03-11 17:13:00,32.2,20.3,29.83,SW,236,1.0,1.0,61,0.00,,,0.01,WeatherCatV1.14B232,2013-03-11 22:13:00,
2013-03-11 17:18:00,32.2,20.7,29.82,SW,236,1.0,1.0,62,0.00,,,0.01,WeatherCatV1.14B232,2013-03-11 22:18:00,
2013-03-11 17:23:00,32.5,20.9,29.82,SW,236,0.0,1.0,62,0.00,,,0.01,WeatherCatV1.14B232,2013-03-11 22:23:00,
2013-03-11 17:28:00,32.4,19.7,29.82,WSW,252,2.0,6.0,59,0.00,,,0.01,WeatherCatV1.14B232,2013-03-11 22:28:00,
2013-03-11 17:33:00,31.9,19.2,29.82,WSW,253,1.0,5.0,59,0.00,,,0.01,WeatherCatV1.14B232,2013-03-11 22:33:00,
2013-03-11 17:38:00,31.8,19.1,29.82,WSW,252,4.0,6.0,59,0.00,,,0.01,WeatherCatV1.14B232,2013-03-11 22:38:00,
2013-03-11 17:43:00,31.3,18.7,29.82,WSW,254,0.0,5.0,59,0.00,,,0.01,WeatherCatV1.14B232,2013-03-11 22:43:00,
2013-03-11 17:48:00,30.9,18.7,29.84,West,259,5.0,5.0,60,0.00,,,0.01,WeatherCatV1.14B232,2013-03-11 22:48:00,
2013-03-11 17:53:00,30.4,18.2,29.84,WSW,251,1.0,6.0,60,0.00,,,0.01,WeatherCatV1.14B232,2013-03-11 22:53:00,
2013-03-11 17:58:00,30.1,17.1,29.84,WSW,251,0.0,3.0,58,0.00,,,0.01,WeatherCatV1.14B232,2013-03-11 22:58:00,
2013-03-11 18:03:00,30.0,17.4,29.84,WSW,247,0.0,0.0,59,0.00,,,0.01,WeatherCatV1.14B232,2013-03-11 23:03:00,
2013-03-11 18:08:00,30.1,18.3,29.84,WSW,243,0.0,4.0,61,0.00,,,0.01,WeatherCatV1.14B232,2013-03-11 23:08:00,
2013-03-11 18:13:00,30.1,18.3,29.84,WSW,242,0.0,0.0,61,0.00,,,0.01,WeatherCatV1.14B232,2013-03-11 23:13:00,
2013-03-11 18:18:00,30.0,19.0,29.84,WSW,242,0.0,2.0,63,0.00,,,0.01,WeatherCatV1.14B232,2013-03-11 23:18:00,
2013-03-11 18:23:00,29.7,19.0,29.84,WSW,240,0.0,3.0,64,0.00,,,0.01,WeatherCatV1.14B232,2013-03-11 23:23:00,
2013-03-11 18:28:00,29.5,18.8,29.84,WSW,240,0.0,0.0,64,0.00,,,0.01,WeatherCatV1.14B232,2013-03-11 23:28:00,
2013-03-11 18:33:00,29.4,19.5,29.86,WSW,240,4.0,4.0,66,0.00,,,0.01,WeatherCatV1.14B232,2013-03-11 23:33:00,
2013-03-11 18:38:00,29.4,19.5,29.86,WSW,240,4.0,4.0,66,0.00,,,0.01,WeatherCatV1.14B232,2013-03-11 23:38:00,
2013-03-11 18:43:00,29.3,19.4,29.86,SW,233,0.0,3.0,66,0.00,,,0.01,WeatherCatV1.14B232,2013-03-11 23:43:00,
2013-03-11 18:48:00,29.1,19.2,29.85,SW,233,0.0,3.0,66,0.00,,,0.01,WeatherCatV1.14B232,2013-03-11 23:48:00,
2013-03-11 18:53:00,29.0,19.4,29.85,SW,217,3.0,4.0,67,0.00,,,0.01,WeatherCatV1.14B232,2013-03-11 23:53:00,
2013-03-11 18:58:00,28.8,19.2,29.85,SW,217,2.0,4.0,67,0.00,,,0.01,WeatherCatV1.14B232,2013-03-11 23:58:00,
2013-03-11 19:03:00,28.5,19.0,29.86,SW,219,3.0,7.0,67,0.00,,,0.01,WeatherCatV1.14B232,2013-03-12 00:03:00,
2013-03-11 19:08:00,28.2,19.0,29.86,SW,219,0.0,2.0,68,0.00,,,0.01,WeatherCatV1.14B232,2013-03-12 00:08:00,
2013-03-11 19:13:00,28.1,18.9,29.86,SW,219,0.0,2.0,68,0.00,,,0.01,WeatherCatV1.14B232,2013-03-12 00:13:00,
2013-03-11 19:18:00,27.8,19.0,29.87,SW,219,0.0,3.0,69,0.00,,,0.01,WeatherCatV1.14B232,2013-03-12 00:18:00,
2013-03-11 19:23:00,27.6,18.4,29.87,SW,219,0.0,0.0,68,0.00,,,0.01,WeatherCatV1.14B232,2013-03-12 00:23:00,
2013-03-11 19:28:00,27.3,18.5,29.87,SW,219,0.0,1.0,69,0.00,,,0.01,WeatherCatV1.14B232,2013-03-12 00:28:00,
2013-03-11 19:33:00,27.2,18.4,29.88,SW,219,0.0,2.0,69,0.00,,,0.01,WeatherCatV1.14B232,2013-03-12 00:33:00,
2013-03-11 19:38:00,27.2,18.1,29.88,SW,219,0.0,0.0,68,0.00,,,0.01,WeatherCatV1.14B232,2013-03-12 00:38:00,
2013-03-11 19:43:00,27.0,17.9,29.88,SW,219,0.0,1.0,68,0.00,,,0.01,WeatherCatV1.14B232,2013-03-12 00:43:00,
2013-03-11 19:48:00,26.9,17.8,29.88,SW,219,0.0,0.0,68,0.00,,,0.01,WeatherCatV1.14B232,2013-03-12 00:48:00,
2013-03-11 19:53:00,26.9,18.1,29.88,SW,219,0.0,0.0,69,0.00,,,0.01,WeatherCatV1.14B232,2013-03-12 00:53:00,
2013-03-11 19:58:00,26.7,17.9,29.88,SW,219,0.0,1.0,69,0.00,,,0.01,WeatherCatV1.14B232,2013-03-12 00:58:00,
2013-03-11 20:03:00,26.6,17.8,29.88,SW,219,0.0,2.0,69,0.00,,,0.01,WeatherCatV1.14B232,2013-03-12 01:03:00,
2013-03-11 20:08:00,26.4,18.0,29.88,SW,219,0.0,0.0,70,0.00,,,0.01,WeatherCatV1.14B232,2013-03-12 01:08:00,
2013-03-11 20:13:00,26.4,18.0,29.88,SW,219,0.0,1.0,70,0.00,,,0.01,WeatherCatV1.14B232,2013-03-12 01:13:00,
2013-03-11 20:18:00,26.3,17.9,29.89,SW,219,0.0,1.0,70,0.00,,,0.01,WeatherCatV1.14B232,2013-03-12 01:18:00,
2013-03-11 20:23:00,26.1,17.7,29.89,SW,219,0.0,1.0,70,0.00,,,0.01,WeatherCatV1.14B232,2013-03-12 01:23:00,
2013-03-11 20:28:00,26.0,17.6,29.89,SW,219,0.0,3.0,70,0.00,,,0.01,WeatherCatV1.14B232,2013-03-12 01:28:00,
2013-03-11 20:33:00,26.0,17.6,29.90,SW,219,0.0,1.0,70,0.00,,,0.01,WeatherCatV1.14B232,2013-03-12 01:33:00,
2013-03-11 20:38:00,26.0,17.6,29.90,SW,219,0.0,0.0,70,0.00,,,0.01,WeatherCatV1.14B232,2013-03-12 01:38:00,
2013-03-11 20:43:00,26.0,17.6,29.90,SW,219,0.0,1.0,70,0.00,,,0.01,WeatherCatV1.14B232,2013-03-12 01:43:00,
2013-03-11 20:48:00,25.8,17.7,29.91,SW,219,0.0,0.0,71,0.00,,,0.01,WeatherCatV1.14B232,2013-03-12 01:48:00,
2013-03-11 20:53:00,25.7,17.9,29.91,SW,219,0.0,0.0,72,0.00,,,0.01,WeatherCatV1.14B232,2013-03-12 01:53:00,
2013-03-11 20:58:00,25.6,17.5,29.91,SW,219,0.0,0.0,71,0.00,,,0.01,WeatherCatV1.14B232,2013-03-12 01:58:00,
2013-03-11 21:04:00,25.4,17.3,29.91,SW,219,0.0,0.0,71,0.00,,,0.01,WeatherCatV1.14B232,2013-03-12 02:04:00,
2013-03-11 21:09:00,25.3,17.6,29.91,SW,219,0.0,0.0,72,0.00,,,0.01,WeatherCatV1.14B232,2013-03-12 02:09:00,
2013-03-11 21:14:00,25.1,17.4,29.91,SW,219,0.0,1.0,72,0.00,,,0.01,WeatherCatV1.14B232,2013-03-12 02:14:00,
2013-03-11 21:19:00,25.1,17.7,29.91,SW,219,0.0,0.0,73,0.00,,,0.01,WeatherCatV1.14B232,2013-03-12 02:19:00,
2013-03-11 21:24:00,25.0,17.6,29.91,SW,219,0.0,0.0,73,0.00,,,0.01,WeatherCatV1.14B232,2013-03-12 02:24:00,
2013-03-11 21:29:00,24.8,17.1,29.91,SW,219,2.0,2.0,72,0.00,,,0.01,WeatherCatV1.14B232,2013-03-12 02:29:00,
2013-03-11 21:34:00,24.8,17.1,29.92,SW,219,0.0,1.0,72,0.00,,,0.01,WeatherCatV1.14B232,2013-03-12 02:34:00,
2013-03-11 21:39:00,24.8,17.1,29.92,SW,219,0.0,0.0,72,0.00,,,0.01,WeatherCatV1.14B232,2013-03-12 02:39:00,
2013-03-11 21:44:00,24.7,17.3,29.92,SW,219,0.0,0.0,73,0.00,,,0.01,WeatherCatV1.14B232,2013-03-12 02:44:00,
2013-03-11 21:49:00,24.7,17.3,29.92,SW,219,0.0,2.0,73,0.00,,,0.01,WeatherCatV1.14B232,2013-03-12 02:49:00,
2013-03-11 21:54:00,24.5,17.1,29.92,SW,219,0.0,0.0,73,0.00,,,0.01,WeatherCatV1.14B232,2013-03-12 02:54:00,
2013-03-11 21:59:00,24.5,17.1,29.92,SW,219,0.0,0.0,73,0.00,,,0.01,WeatherCatV1.14B232,2013-03-12 02:59:00,
2013-03-11 22:04:00,24.5,17.4,29.91,SW,219,0.0,0.0,74,0.00,,,0.01,WeatherCatV1.14B232,2013-03-12 03:04:00,
2013-03-11 22:09:00,24.4,17.0,29.91,SW,219,0.0,0.0,73,0.00,,,0.01,WeatherCatV1.14B232,2013-03-12 03:09:00,
2013-03-11 22:14:00,24.4,17.0,29.91,SW,219,0.0,1.0,73,0.00,,,0.01,WeatherCatV1.14B232,2013-03-12 03:14:00,
2013-03-11 22:19:00,24.4,17.0,29.91,SW,219,0.0,0.0,73,0.00,,,0.01,WeatherCatV1.14B232,2013-03-12 03:19:00,
2013-03-11 22:24:00,24.2,16.8,29.91,SW,219,0.0,0.0,73,0.00,,,0.01,WeatherCatV1.14B232,2013-03-12 03:24:00,
2013-03-11 22:29:00,24.2,17.1,29.92,SW,219,0.0,0.0,74,0.00,,,0.01,WeatherCatV1.14B232,2013-03-12 03:29:00,
2013-03-11 22:34:00,24.2,17.1,29.92,SW,219,0.0,2.0,74,0.00,,,0.01,WeatherCatV1.14B232,2013-03-12 03:34:00,
2013-03-11 22:39:00,24.2,17.1,29.92,SW,219,0.0,0.0,74,0.00,,,0.01,WeatherCatV1.14B232,2013-03-12 03:39:00,
2013-03-11 22:44:00,24.2,17.1,29.92,SW,219,3.0,3.0,74,0.00,,,0.01,WeatherCatV1.14B232,2013-03-12 03:44:00,
2013-03-11 22:49:00,24.1,16.7,29.92,North,355,6.0,7.0,73,0.00,,,0.01,WeatherCatV1.14B232,2013-03-12 03:49:00,
2013-03-11 22:54:00,23.6,16.6,29.92,North,355,1.0,1.0,74,0.00,,,0.01,WeatherCatV1.14B232,2013-03-12 03:54:00,
2013-03-11 22:59:00,23.2,16.5,29.93,North,355,2.0,2.0,75,0.00,,,0.01,WeatherCatV1.14B232,2013-03-12 03:59:00,
2013-03-11 23:00:00,23.0,16.3,29.93,North,355,3.0,4.0,75,0.00,,,0.01,WeatherCatV1.14B232,2013-03-12 04:00:00,
2013-03-11 23:01:00,23.0,16.3,29.93,North,355,0.0,4.0,75,0.00,,,0.01,WeatherCatV1.14B232,2013-03-12 04:01:00,
2013-03-11 23:06:00,22.9,16.5,29.93,North,355,1.0,2.0,76,0.00,,,0.01,WeatherCatV1.14B232,2013-03-12 04:06:00,
2013-03-11 23:11:00,22.7,16.3,29.93,North,355,0.0,0.0,76,0.00,,,0.01,WeatherCatV1.14B232,2013-03-12 04:11:00,
2013-03-11 23:16:00,22.7,16.6,29.94,North,355,1.0,1.0,77,0.00,,,0.01,WeatherCatV1.14B232,2013-03-12 04:16:00,
2013-03-11 23:21:00,22.7,16.6,29.94,North,355,0.0,0.0,77,0.00,,,0.01,WeatherCatV1.14B232,2013-03-12 04:21:00,
2013-03-11 23:26:00,22.7,16.6,29.94,North,355,0.0,0.0,77,0.00,,,0.01,WeatherCatV1.14B232,2013-03-12 04:26:00,
2013-03-11 23:31:00,23.0,16.6,29.94,North,355,0.0,1.0,76,0.00,,,0.01,WeatherCatV1.14B232,2013-03-12 04:31:00,
2013-03-11 23:36:00,23.2,16.8,29.94,North,355,0.0,1.0,76,0.00,,,0.01,WeatherCatV1.14B232,2013-03-12 04:36:00,
2013-03-11 23:41:00,23.3,16.6,29.94,North,355,0.0,0.0,75,0.00,,,0.01,WeatherCatV1.14B232,2013-03-12 04:41:00,
2013-03-11 23:46:00,23.2,16.5,29.94,North,355,0.0,0.0,75,0.00,,,0.01,WeatherCatV1.14B232,2013-03-12 04:46:00,
2013-03-11 23:51:00,23.0,16.3,29.94,North,355,0.0,1.0,75,0.00,,,0.01,WeatherCatV1.14B232,2013-03-12 04:51:00,
2013-03-11 23:56:00,22.9,16.2,29.94,North,355,0.0,1.0,75,0.00,,,0.01,WeatherCatV1.14B232,2013-03-12 04:56:00,